Albany, GA

11:39 AM EST on February 19, 2018 (GMT -0500)
Southwest Georgia Regional

Weather History for KABY - April, 2013

Change the Weather History Date:

Sunday, April 7, 2013

  Actual Average Record
Temperature  
Mean Temperature 63 °F 64 °F  
Max Temperature 80 °F 77 °F 89 °F (1946)
Min Temperature 46 °F 51 °F 32 °F (1987)
Degree Days  
Heating Degree Days 2 3  
Month to date heating degree days 42 25  
Since 1 July heating degree days 1666 1794  
Cooling Degree Days 0 2  
Month to date cooling degree days 2 14  
Year to date cooling degree days 41 52  
Growing Degree Days 13 (Base 50)    
Moisture  
Dew Point 50 °F    
Average Humidity 65    
Maximum Humidity 93    
Minimum Humidity 36    
Precipitation  
Precipitation 0.00 in 0.13 in 2.09 in (2014)
Month to date precipitation 0.08 1.07  
Year to date precipitation 13.00 15.10  
Sea Level Pressure  
Sea Level Pressure 30.15 in    
Wind  
Wind Speed 4 mph (SSE)    
Max Wind Speed 13 mph    
Max Gust Speed 16 mph    
Visibility 10 miles    
Events      
T = Trace of Precipitation, MM = Missing Value Source: NWS Daily Summary

Daily Weather History Graph

Daily Weather History Graph

Search for Another Location

Airport or City:

Trip Planner

Search our weather history database for the weather conditions in past years. The results will help you decide how hot, cold, wet, or windy it might be!

Date:

Astronomy

Apr. 07, 2013 Rise Set
Actual Time 7:17 AM EDT 8:00 PM EDT
Civil Twilight 6:52 AM EDT 8:25 PM EDT
Nautical Twilight 6:23 AM EDT 8:54 PM EDT
Astronomical Twilight 5:54 AM EDT 9:23 PM EDT
Moon 5:25 AM EDT (4/7) 5:39 PM EDT (4/7)
Length of Visible Light 13h 32m
Length of Day
12h 42m
Waning Crescent, 8% of the Moon is Illuminated
Apr 7
Waning Crescent
Apr 10
New
Apr 18
First Quarter
Apr 25
Full
May 2
Last Quarter

Hourly Weather History & Observations

Time (EDT) Temp. Dew Point Humidity Pressure Visibility Wind Dir Wind Speed Gust Speed Precip Events Conditions
12:53 AM 57.0 °F 45.0 °F 64% 30.17 in 10.0 mi ESE 5.8 mph - N/A   Clear
1:53 AM 55.9 °F 45.0 °F 67% 30.17 in 10.0 mi ESE 3.5 mph - N/A   Clear
2:53 AM 54.0 °F 46.9 °F 77% 30.17 in 10.0 mi ESE 4.6 mph - N/A   Clear
3:53 AM 52.0 °F 46.9 °F 83% 30.16 in 10.0 mi Calm Calm - N/A   Clear
4:53 AM 48.9 °F 46.9 °F 93% 30.16 in 10.0 mi Calm Calm - N/A   Clear
5:53 AM 48.0 °F 46.0 °F 93% 30.16 in 10.0 mi Calm Calm - N/A   Clear
6:53 AM 46.9 °F 45.0 °F 93% 30.17 in 10.0 mi Calm Calm - N/A   Clear
7:53 AM 46.9 °F 45.0 °F 93% 30.19 in 10.0 mi Calm Calm - N/A   Clear
8:53 AM 57.0 °F 52.0 °F 83% 30.21 in 10.0 mi East 3.5 mph - N/A   Clear
9:53 AM 64.0 °F 55.0 °F 73% 30.22 in 10.0 mi SE 4.6 mph - N/A   Clear
10:53 AM 69.1 °F 55.0 °F 61% 30.22 in 10.0 mi South 8.1 mph - N/A   Clear
11:53 AM 72.0 °F 54.0 °F 53% 30.22 in 10.0 mi SSW 6.9 mph - N/A   Mostly Cloudy
12:53 PM 73.9 °F 53.1 °F 48% 30.20 in 10.0 mi SSE 5.8 mph - N/A   Mostly Cloudy
1:53 PM 77.0 °F 52.0 °F 42% 30.17 in 10.0 mi Variable 5.8 mph - N/A   Mostly Cloudy
2:53 PM 77.0 °F 50.0 °F 39% 30.14 in 10.0 mi Variable 4.6 mph - N/A   Partly Cloudy
3:53 PM 77.0 °F 51.1 °F 40% 30.12 in 10.0 mi South 10.4 mph - N/A   Mostly Cloudy
4:53 PM 80.1 °F 51.1 °F 36% 30.10 in 10.0 mi South 9.2 mph - N/A   Partly Cloudy
5:53 PM 77.0 °F 51.1 °F 40% 30.09 in 10.0 mi SSE 6.9 mph - N/A   Clear
6:53 PM 75.9 °F 52.0 °F 43% 30.10 in 10.0 mi South 5.8 mph - N/A   Overcast
7:53 PM 72.0 °F 53.1 °F 51% 30.11 in 10.0 mi South 3.5 mph - N/A   Mostly Cloudy
8:53 PM 70.0 °F 53.1 °F 55% 30.10 in 10.0 mi South 3.5 mph - N/A   Mostly Cloudy
9:53 PM 64.9 °F 53.1 °F 65% 30.12 in 10.0 mi South 3.5 mph - N/A   Clear
10:53 PM 63.0 °F 53.1 °F 70% 30.12 in 10.0 mi Calm Calm - N/A   Clear
11:53 PM 60.1 °F 53.1 °F 78% 30.12 in 10.0 mi Calm Calm - N/A   Clear